Weather History for KAJO - September, 2012

Change the Weather History Date:

Friday, September 28, 2012

  Actual Average (KONT) Record (KONT)
Temperature  
Mean Temperature 72 °F 73 °F  
Max Temperature 91 °F 85 °F 100 °F (1999)
Min Temperature 53 °F 60 °F 52 °F (1998)
Degree Days  
Heating Degree Days 0 0  
Month to date heating degree days 0  
Since 1 July heating degree days 0  
Cooling Degree Days 6 8  
Month to date cooling degree days 313  
Year to date cooling degree days 1536  
Growing Degree Days 22 (Base 50)    
Moisture  
Dew Point 55 °F    
Average Humidity 64    
Maximum Humidity 100    
Minimum Humidity 24    
Precipitation  
Precipitation 0.00 in 0.01 in 0.33 in (1951)
Month to date precipitation 0.23  
Year to date precipitation 10.83  
Since 1 July precipitation 0.45  
Snow  
Snow 0.00 in - - ()
Month to date snowfall  
Year to date snowfall  
Since 1 July snowfall  
Snow Depth -    
Sea Level Pressure  
Sea Level Pressure 29.88 in    
Wind  
Wind Speed - (North)    
Max Wind Speed -    
Max Gust Speed -    
Visibility 8 miles    
Events      
T = Trace of Precipitation, MM = Missing Value Source: NWS Daily Summary

Daily Weather History Graph

Daily Weather History Graph

Search for Another Location

Airport or City:

Trip Planner

Search our weather history database for the weather conditions in past years. The results will help you decide how hot, cold, wet, or windy it might be!

Date:

Astronomy

Sep. 28, 2012 Rise Set
Actual Time 6:43 AM PDT 6:38 PM PDT
Civil Twilight 6:18 AM PDT 7:02 PM PDT
Nautical Twilight 5:49 AM PDT 7:31 PM PDT
Astronomical Twilight 5:20 AM PDT 8:00 PM PDT
Moon 5:42 PM PDT (9/28) 5:20 AM PDT (9/28)
Length of Visible Light 12h 44m
Length of Day
11h 54m
Waxing Gibbous, 98% of the Moon is Illuminated
Sep 28
Waxing Gibbous
Sep 29
Full
Oct 8
Last Quarter
Oct 15
New
Oct 21
First Quarter

Hourly Weather History & Observations

Time (PDT) Temp. Heat Index Dew Point Humidity Pressure Visibility Wind Dir Wind Speed Gust Speed Precip Events Conditions
12:56 AM 65.8 °F - 61.0 °F 84% 29.91 in 9.0 mi North - - N/A   Clear
1:56 AM 64.9 °F - 61.0 °F 87% 29.91 in 7.0 mi North - - N/A   Clear
2:56 AM 63.9 °F - 61.0 °F 90% 29.90 in 6.0 mi North - - N/A   Clear
3:56 AM 57.9 °F - 56.8 °F 96% 29.89 in 3.0 mi North - - N/A   Clear
4:56 AM 55.9 °F - 55.9 °F 100% 29.89 in 6.0 mi North - - N/A   Clear
5:56 AM 57.9 °F - 57.9 °F 100% 29.90 in 4.0 mi North - - N/A   Clear
6:56 AM 54.9 °F - 54.9 °F 100% 29.91 in 2.0 mi North - - N/A   Clear
7:04 AM 53.6 °F - 53.6 °F 100% 29.93 in 1.2 mi North - - N/A   Clear
7:12 AM 55.4 °F - 55.4 °F 100% 29.93 in 2.0 mi North - - N/A   Clear
7:20 AM 55.4 °F - 55.4 °F 100% 29.93 in 3.0 mi North - - N/A   Clear
7:56 AM 61.9 °F - 57.9 °F 87% 29.93 in 5.0 mi North - - N/A   Clear
8:56 AM 70.0 °F - 56.8 °F 63% 29.93 in 8.0 mi North - - N/A   Clear
9:56 AM 75.9 °F - 54.0 °F 46% 29.93 in 10.0 mi North - - N/A   Clear
10:56 AM 81.9 °F - 48.9 °F 32% 29.90 in 10.0 mi North - - N/A   Clear
11:56 AM 86.9 °F - 45.9 °F 24% 29.88 in 10.0 mi North - - N/A   Clear
12:56 PM 90.0 °F - 50.9 °F 26% 29.86 in 10.0 mi North - - N/A   Clear
1:56 PM 90.9 °F - 52.0 °F 26% 29.83 in 10.0 mi North - - N/A   Clear
2:56 PM 90.9 °F 88.5 °F 54.0 °F 28% 29.82 in 10.0 mi North - - N/A   Clear
3:56 PM 90.0 °F - 52.0 °F 27% 29.81 in 10.0 mi North - - N/A   Clear
4:56 PM 88.0 °F - 48.9 °F 26% 29.80 in 10.0 mi North - - N/A   Clear
5:56 PM 83.8 °F - 50.0 °F 31% 29.81 in 10.0 mi North - - N/A   Clear
6:56 PM 79.0 °F - 54.9 °F 43% 29.83 in 10.0 mi North - - N/A   Clear
7:56 PM 75.9 °F - 56.8 °F 51% 29.85 in 10.0 mi North - - N/A   Clear
8:56 PM 73.9 °F - 55.9 °F 53% 29.87 in 10.0 mi North - - N/A   Clear
9:56 PM 68.9 °F - 54.9 °F 61% 29.89 in 10.0 mi North - - N/A   Clear
10:56 PM 64.9 °F - 54.0 °F 68% 29.90 in 10.0 mi North - - N/A   Clear
11:56 PM 59.9 °F - 52.0 °F 75% 29.90 in 10.0 mi North - - N/A   Clear